Wind_Speed
23 24 25 25 25 25 25 25 25 25 25 24 24 23 22 22 20 19 17 16 15 14 14 14 14 16 17 18 18 19 20 21 22 21 20 20 19 18 20 22 21 22 21 19 17 15 13 13 13 13 13 12 12 13 13 13 13 12 11 10 10 10 8
25 25 26 27 27 27 26 26 26 26 26 25 25 24 23 22 21 20 19 16 15 13 12 14 15 15 15 16 16 17 19 19 20 19 19 20 18 17 18 20 21 21 21 19 17 14 13 14 13 13 13 12 11 12 12 13 13 12 11 12 12 10 9
26 27 28 29 29 28 27 27 27 27 27 27 27 26 25 23 21 20 19 17 16 14 12 12 13 13 13 14 14 15 17 18 19 18 19 20 18 18 18 19 20 20 20 19 16 13 13 14 13 13 13 12 11 11 11 12 13 12 13 13 12 11 11
28 29 31 31 30 30 28 27 27 27 27 28 28 29 27 25 23 21 20 18 16 15 13 11 11 11 12 13 13 13 15 17 17 17 19 18 18 18 18 18 18 18 19 19 16 14 14 13 13 13 13 12 12 12 12 13 14 14 14 13 12 11 11
29 30 31 31 31 31 29 27 26 26 26 27 28 30 30 27 24 22 21 18 16 16 15 14 12 12 12 12 12 13 13 15 16 16 17 17 17 18 16 17 17 18 20 19 16 15 15 15 14 13 13 13 13 13 13 14 15 15 14 12 12 12 12
30 30 30 30 30 30 28 25 25 25 26 28 30 31 32 30 26 23 21 19 16 16 16 15 14 12 12 12 13 13 14 15 15 16 16 17 18 19 17 18 18 18 18 16 14 14 16 16 15 14 13 13 13 13 13 14 15 15 13 12 13 13 11
29 28 28 28 28 27 27 26 25 26 27 29 31 32 31 30 28 25 23 21 18 17 16 16 15 14 13 13 13 13 14 16 16 17 18 17 18 19 18 18 17 17 17 16 15 15 16 16 15 15 15 14 13 13 13 15 15 14 14 14 13 12 10
27 26 26 26 27 27 28 28 28 29 30 30 31 32 31 31 31 27 23 22 21 20 18 17 16 15 15 15 15 14 14 16 18 19 19 19 18 18 18 18 16 15 16 17 16 16 18 18 16 16 16 15 14 14 14 15 15 14 14 14 14 11 10
25 25 25 26 27 29 30 30 31 31 32 32 33 32 32 33 33 29 23 22 24 22 19 17 17 16 17 17 16 15 14 14 17 19 19 19 19 18 19 19 17 17 18 18 17 17 19 18 17 16 14 13 13 14 14 15 15 14 14 15 14 11 12
24 24 26 27 28 30 31 31 31 31 32 34 36 35 33 33 32 30 27 25 24 22 20 18 17 18 18 18 17 15 14 14 16 18 19 19 19 19 19 18 17 18 19 19 18 18 19 17 16 15 13 13 15 15 14 14 14 14 15 15 13 11 12
25 26 27 27 28 29 30 30 30 30 32 36 37 35 33 31 29 29 27 25 23 22 21 20 19 19 19 19 19 16 16 16 17 19 20 19 18 18 18 18 18 18 18 18 18 18 19 17 16 16 15 16 16 15 15 14 14 14 15 14 13 11 12
26 26 27 28 29 29 29 29 30 31 32 35 35 32 29 28 27 28 26 24 23 24 24 22 20 20 19 19 19 18 17 17 18 19 20 18 17 18 18 17 18 18 18 18 18 18 19 19 17 17 17 18 17 16 16 17 15 15 15 15 14 12 12
24 25 26 27 28 29 29 29 30 30 31 33 32 28 24 24 25 26 25 23 24 25 23 22 22 20 19 18 18 18 17 17 18 19 20 19 18 18 18 17 17 17 18 19 18 18 20 21 19 17 18 18 17 17 18 18 16 15 15 15 13 13 13
23 24 25 26 27 29 29 29 29 30 30 32 30 24 20 21 23 24 23 23 24 24 23 22 22 20 18 17 17 17 16 16 17 17 18 19 18 17 17 17 17 17 18 19 18 19 22 22 19 18 19 19 17 17 17 16 14 13 14 15 14 14 13
21 23 24 24 26 28 29 28 28 29 29 30 28 21 18 19 21 22 22 22 24 23 22 21 20 17 16 16 17 18 17 17 16 15 16 17 16 16 17 17 17 18 18 18 19 22 23 22 20 19 20 20 18 18 18 16 14 13 13 14 14 15 13
20 21 23 24 25 27 27 26 26 27 28 29 27 20 17 18 19 19 20 21 22 20 18 19 18 15 15 17 18 18 17 17 15 14 15 16 16 16 17 17 17 18 18 19 21 24 24 23 22 21 22 22 20 19 18 18 17 15 14 14 16 16 13
18 20 22 22 24 25 26 25 24 25 26 27 26 20 16 16 16 16 17 17 17 16 15 17 18 16 16 17 18 17 16 16 15 15 16 17 16 17 17 17 17 18 19 21 23 25 25 24 22 22 23 23 22 20 19 19 18 16 15 16 16 15 14
17 19 20 21 22 23 23 23 22 22 23 23 22 19 15 16 16 16 15 13 12 12 12 15 16 15 15 15 15 16 15 14 15 16 17 17 17 17 17 18 19 19 21 23 25 26 26 24 24 23 23 23 21 19 20 19 18 16 15 15 16 14 13
16 17 18 19 20 21 21 22 21 20 20 19 18 16 14 13 14 15 15 14 12 11 11 13 13 13 15 14 13 14 15 15 16 17 17 18 18 18 18 20 21 21 21 23 24 25 24 22 22 20 19 19 17 17 19 18 15 15 14 15 16 12 11
15 16 16 17 18 19 20 21 20 19 18 17 16 15 13 12 12 13 14 13 12 12 10 11 11 12 15 14 13 14 15 15 15 16 18 21 20 18 19 20 20 18 18 20 21 21 20 18 18 16 16 17 15 14 16 15 13 14 15 17 16 12 11
14 14 15 16 17 18 19 20 20 19 17 16 17 16 14 13 10 9 10 10 10 11 11 11 11 12 12 12 12 13 13 14 14 15 19 21 20 19 20 19 18 17 17 17 18 17 17 17 16 15 15 15 14 13 14 14 15 16 16 17 15 12 12
13 14 14 15 17 18 19 20 20 19 17 16 17 16 15 13 10 9 9 9 10 11 11 13 14 12 11 11 11 11 12 14 14 16 18 19 19 19 19 18 17 17 16 16 16 17 18 17 17 16 16 16 14 14 15 16 17 16 16 16 15 12 12
14 14 15 16 17 18 19 20 21 20 18 16 16 15 13 13 12 12 11 11 11 11 12 14 15 13 12 11 11 12 12 13 14 15 16 17 18 17 17 17 18 16 17 17 17 18 19 18 17 17 18 17 15 15 16 17 17 17 17 16 14 12 11
15 15 16 17 18 19 20 20 21 21 18 15 15 13 11 11 11 12 11 11 12 11 11 13 13 13 13 11 9 10 11 12 13 13 13 14 15 14 15 18 19 18 18 19 19 18 18 18 17 17 18 17 17 17 18 19 19 19 18 17 15 13 11
16 17 17 17 18 19 20 21 21 21 18 15 14 12 10 9 9 10 10 11 11 10 10 12 13 14 14 12 9 9 9 10 10 10 12 13 14 15 14 15 17 18 20 20 18 17 17 17 17 17 17 18 18 18 18 19 19 19 19 18 16 15 12
17 18 18 18 18 19 20 21 21 21 19 15 13 11 9 9 9 9 9 9 9 9 9 10 12 14 14 13 12 11 11 10 10 11 12 14 15 16 15 15 16 18 18 18 16 15 16 17 18 17 18 20 21 19 18 19 19 18 18 18 18 16 13
17 18 18 18 19 19 19 21 21 21 20 17 14 12 10 10 9 9 8 7 8 10 11 11 12 12 12 13 14 13 13 12 11 11 12 13 15 16 17 18 18 17 16 16 15 15 16 18 19 18 19 21 22 21 20 20 19 18 18 18 18 15 12
17 18 18 18 18 18 19 20 21 21 20 18 16 14 12 11 10 8 6 6 7 9 11 12 13 12 12 14 15 15 15 12 10 10 11 12 14 15 17 18 17 16 17 16 15 16 17 18 18 18 19 21 21 21 21 20 19 18 17 17 15 12 12
16 17 17 17 18 18 19 20 20 21 20 19 16 13 12 12 10 5 5 5 7 8 9 10 12 12 13 15 16 15 15 13 9 9 11 11 13 15 15 16 16 16 17 17 17 18 17 17 17 17 19 20 20 20 20 20 19 18 18 18 17 16 17
16 16 16 16 17 17 18 19 20 20 19 16 14 12 13 13 10 4 3 4 5 6 7 9 11 11 12 14 14 13 15 13 10 9 11 10 11 14 14 13 13 14 15 17 18 17 15 15 17 19 20 20 20 20 20 19 19 19 19 19 19 20 20
15 15 15 15 16 17 18 19 18 17 16 13 11 11 12 13 10 4 2 3 4 4 5 10 11 10 11 13 13 12 13 13 8 6 9 10 10 12 13 14 13 13 14 17 17 16 16 17 18 19 20 20 20 19 19 19 20 20 20 20 20 21 21
15 14 14 14 15 16 18 17 16 15 14 12 9 9 11 11 8 5 5 4 6 5 4 10 10 10 12 14 14 12 11 12 11 7 6 9 7 6 8 12 15 15 15 16 15 15 18 19 19 20 20 19 20 20 20 20 21 22 22 21 22 22 21
14 14 14 14 13 14 15 14 12 13 13 11 10 10 9 9 7 7 7 7 8 7 6 11 9 7 10 12 14 13 6 6 12 11 7 7 8 7 8 9 12 16 17 16 14 15 17 19 20 20 19 19 20 21 21 22 23 23 23 23 23 23 23
14 14 14 13 12 12 12 11 11 12 12 10 10 10 9 8 8 8 8 8 8 7 6 11 8 6 7 7 10 15 12 9 10 10 9 8 7 10 12 10 11 14 15 15 16 16 17 19 20 19 18 19 20 21 22 23 24 25 25 25 26 26 27
12 13 13 11 11 10 9 9 11 12 13 12 11 10 10 10 10 9 10 9 8 8 5 8 8 8 10 7 7 13 17 18 15 13 11 9 6 7 10 11 13 14 13 15 18 19 21 23 22 20 19 20 20 21 23 24 25 26 27 28 29 29 30
11 11 10 9 9 8 7 8 9 11 13 13 13 12 12 13 13 12 11 10 7 6 6 6 5 5 8 10 10 12 16 20 22 22 19 14 9 7 7 9 13 15 15 16 18 18 20 21 21 20 21 22 22 23 24 26 27 28 29 30 31 33 34
9 9 8 7 6 5 5 6 7 9 10 11 13 13 13 14 14 13 12 11 8 5 5 5 6 6 7 9 11 13 14 17 20 24 26 22 17 13 9 9 11 14 17 20 21 18 18 19 20 21 23 26 27 27 28 29 30 31 32 33 35 36 37
Wind_Direction
312 311 308 306 309 315 321 322 321 319 317 318 317 317 316 315 314 312 315 319 316 318 324 318 295 280 278 275 265 252 242 235 231 230 230 234 228 219 224 228 226 229 230 230 226 222 228 234 231 231 233 228 225 226 224 222 220 219 220 218 212 206 203
307 305 302 301 307 315 319 319 317 313 311 310 309 308 308 308 308 306 307 311 311 306 313 322 310 294 291 288 273 253 241 231 231 231 227 230 228 220 223 227 227 227 227 228 226 221 227 235 235 230 229 228 226 223 221 220 218 217 218 214 208 204 204
305 301 299 301 309 314 315 315 312 308 306 304 302 300 299 300 300 299 298 300 303 300 297 310 313 303 298 297 282 259 243 233 232 232 226 226 229 225 224 227 229 226 223 223 224 225 229 233 234 230 227 227 227 225 223 220 218 220 220 212 205 203 204
302 299 300 304 310 311 311 310 307 304 301 298 296 294 292 293 293 291 291 290 293 294 288 291 304 301 295 300 295 271 249 239 237 234 226 225 229 226 222 224 226 224 222 218 215 222 229 230 231 231 229 225 222 221 219 217 217 220 219 213 208 208 210
300 299 303 307 309 309 310 308 305 302 300 296 292 288 284 282 280 281 283 283 283 287 284 278 283 292 293 296 294 275 253 245 244 240 233 229 229 228 224 223 222 221 223 217 209 216 226 225 224 226 226 223 220 217 216 215 214 217 216 211 211 217 223
299 301 305 307 308 309 308 307 305 303 301 299 292 285 282 280 278 278 279 277 273 273 277 274 269 275 286 289 283 270 256 250 247 243 239 234 230 228 225 224 221 218 221 218 214 221 228 227 225 225 224 219 215 214 215 213 211 213 215 213 219 226 230
301 303 305 306 307 307 307 306 305 304 302 300 294 287 286 286 284 280 276 273 268 262 265 268 263 260 266 275 274 262 251 247 245 243 240 237 232 228 228 227 221 214 215 218 222 226 227 227 225 223 221 215 209 209 211 210 208 212 215 218 226 229 227
302 304 305 306 306 305 304 304 305 304 302 300 295 291 290 287 281 275 270 267 264 259 257 261 261 255 251 257 261 254 247 245 247 247 243 238 234 230 231 233 227 220 220 224 227 227 225 223 222 220 215 209 208 207 205 204 206 211 216 224 232 225 219
302 303 303 304 304 303 304 304 305 305 303 300 298 295 290 284 278 275 273 267 260 256 254 254 257 254 247 248 251 246 243 248 251 249 246 241 235 230 230 230 224 220 223 226 229 231 227 221 221 224 218 209 210 210 206 204 204 209 216 226 231 223 219
299 300 301 302 302 302 304 305 307 307 306 305 303 297 287 280 276 274 274 269 260 255 252 250 251 252 247 244 245 241 235 242 248 246 245 241 234 230 227 223 218 218 223 228 228 231 232 223 218 222 221 216 212 209 211 211 209 212 218 227 231 224 223
297 299 300 300 300 302 305 307 308 309 310 310 307 298 285 276 272 268 267 266 260 257 254 250 247 248 246 241 239 237 232 234 238 240 241 237 228 225 223 219 219 223 228 227 223 228 234 228 217 215 218 221 217 211 213 216 216 217 219 228 233 226 225
297 298 299 300 302 303 306 307 308 309 312 313 311 302 285 272 267 263 262 263 261 257 255 252 249 246 243 240 236 233 230 228 230 233 234 229 220 217 218 218 222 227 228 222 219 226 232 229 221 214 215 219 217 214 219 217 213 216 221 228 236 234 230
299 300 301 303 304 306 308 308 309 310 313 316 313 304 287 271 264 263 261 259 256 255 254 253 252 246 239 236 236 234 229 225 226 226 224 221 215 214 219 223 226 230 226 217 216 222 225 226 223 218 218 220 216 217 225 220 208 211 223 228 234 237 232
304 303 304 306 306 308 309 309 310 310 313 319 318 306 288 270 262 264 263 259 256 255 254 254 252 245 239 238 239 237 230 225 225 222 219 219 217 217 222 225 224 224 220 214 214 218 221 222 222 221 221 222 220 220 226 224 212 212 225 227 228 233 228
306 305 305 309 309 310 311 311 312 311 311 321 323 309 287 272 266 268 267 266 266 261 257 259 256 245 240 240 237 233 230 229 226 224 225 226 225 225 225 226 224 220 217 214 215 217 218 217 218 221 222 218 215 219 222 222 219 219 224 222 222 227 224
307 308 309 312 312 311 313 315 315 313 313 323 328 315 291 278 276 278 276 277 279 272 265 267 262 247 239 239 237 230 226 229 229 228 233 234 233 231 227 226 228 225 221 219 219 219 215 214 214 218 222 216 210 215 218 216 218 220 218 214 216 221 222
310 312 313 315 314 314 319 321 319 317 318 325 329 322 302 287 281 278 281 288 288 282 280 277 266 251 242 241 240 232 223 225 229 230 234 235 234 232 227 228 231 230 223 219 221 220 215 214 215 216 221 216 207 210 213 211 212 214 214 213 214 217 220
315 316 317 318 319 322 326 327 325 322 321 325 330 328 313 294 283 277 284 296 292 287 287 276 264 257 250 244 238 233 227 226 227 228 231 233 231 228 225 225 226 223 219 218 219 217 216 216 212 211 219 217 206 205 208 207 207 208 210 211 213 215 218
321 322 323 324 326 330 333 333 330 326 323 323 328 330 320 300 285 280 289 295 289 286 280 263 259 265 264 254 236 228 227 226 226 230 233 232 229 226 226 227 223 216 215 219 219 214 214 219 213 206 215 217 207 203 202 198 200 205 203 206 211 216 215
330 331 332 332 333 335 338 338 336 331 326 322 318 318 317 310 296 287 288 287 279 280 278 262 259 266 266 256 237 230 231 231 230 233 234 231 224 220 224 229 227 221 217 221 223 216 211 219 219 210 213 220 221 216 200 188 197 206 201 206 214 211 207
339 341 341 340 340 341 342 342 340 335 330 324 315 308 308 311 307 292 286 280 271 273 278 272 262 260 260 249 234 229 231 233 235 233 230 228 223 219 222 225 227 225 219 219 225 218 208 214 221 218 217 219 223 222 206 194 201 207 204 212 219 209 207
345 347 347 345 344 344 345 344 342 338 332 324 316 308 303 300 297 290 285 279 271 270 272 267 257 252 251 244 235 228 221 223 232 230 225 226 227 225 223 223 224 223 219 218 216 208 204 208 213 215 213 212 213 213 208 203 205 206 206 214 221 216 211
345 347 348 346 345 345 345 345 343 340 334 327 321 315 305 294 286 282 278 273 270 268 265 261 256 253 251 240 229 224 220 221 225 221 219 224 230 230 225 221 221 219 218 214 205 201 205 206 205 207 206 207 210 207 203 205 207 206 206 213 222 223 219
344 345 346 345 344 343 343 344 345 344 341 338 334 325 311 298 287 282 278 273 270 269 264 257 252 252 254 249 234 224 223 220 213 207 211 222 232 235 227 219 216 217 220 215 202 200 207 204 200 204 205 205 206 204 205 208 207 205 206 212 218 218 218
341 343 344 343 343 342 341 342 345 346 347 346 344 337 319 302 290 285 284 279 273 268 262 253 243 240 243 248 250 245 236 229 220 215 219 225 230 233 230 225 219 215 218 215 202 199 206 203 200 203 205 204 203 205 212 210 204 205 209 212 215 214 214
339 342 343 343 344 342 341 340 342 346 348 346 345 342 328 306 290 284 284 279 269 259 253 245 237 234 235 237 243 249 249 243 235 230 228 226 225 223 226 232 227 216 214 209 201 202 206 205 205 205 203 203 202 206 214 211 205 211 216 216 216 212 215
341 342 342 344 345 343 340 340 341 345 347 344 340 336 329 315 298 287 281 273 263 256 250 243 238 235 233 235 237 238 239 233 223 223 227 228 226 222 220 222 218 214 214 209 203 206 208 207 210 209 204 203 202 207 212 211 208 212 218 222 219 211 216
343 343 342 344 345 343 342 340 340 342 345 343 339 335 330 321 307 288 271 265 263 260 252 243 239 234 229 231 232 231 231 228 219 217 220 223 224 220 215 213 208 208 213 211 207 210 209 208 209 208 206 205 206 210 212 211 212 213 217 224 225 221 229
344 343 343 346 346 344 342 340 339 342 344 345 344 343 342 340 330 298 255 250 257 264 264 255 245 235 228 227 226 225 225 223 222 224 223 223 220 213 213 214 207 205 210 209 210 213 211 209 208 206 207 209 210 214 216 216 219 220 220 224 227 230 235
342 343 344 346 346 343 342 340 338 341 345 349 354 356 355 357 359 344 262 252 261 272 267 254 246 238 229 224 220 222 223 220 226 233 225 223 219 212 216 218 209 209 213 207 207 214 216 214 213 210 210 212 214 216 219 221 224 226 227 228 229 232 237
339 341 343 345 343 341 341 340 339 342 348 354 2 4 2 5 10 5 308 275 281 279 227 219 226 226 220 215 208 210 211 205 208 219 206 205 214 216 218 218 216 221 221 209 206 213 218 218 217 216 215 218 221 222 224 226 229 231 233 234 235 238 241
336 337 339 342 341 341 341 340 342 350 358 4 8 9 8 9 7 353 340 325 318 318 241 224 229 225 221 216 203 196 199 206 223 237 206 191 203 223 225 218 217 218 216 211 212 219 223 224 224 222 223 225 227 228 230 233 235 236 238 240 241 243 244
332 333 335 338 341 342 342 344 352 4 12 19 23 22 17 11 4 350 341 331 328 327 270 248 250 231 225 226 207 189 181 227 242 251 245 215 216 238 248 237 227 221 217 220 227 229 231 233 228 225 226 229 231 232 234 237 240 241 242 243 243 243 242
328 331 333 334 338 341 345 355 10 17 22 26 24 21 19 16 15 10 360 346 340 336 269 246 242 194 184 208 205 195 196 219 233 239 246 241 236 243 247 247 239 230 224 230 239 242 242 239 231 226 228 230 232 235 237 240 243 243 243 243 242 241 239
325 328 330 329 330 338 354 14 27 30 31 29 23 20 22 25 28 24 16 8 358 347 297 246 228 190 181 193 207 207 215 227 231 227 225 225 229 244 249 249 248 250 253 253 247 241 238 236 232 232 237 240 240 241 242 243 243 243 243 242 241 240 240
322 324 325 324 326 344 11 25 32 33 31 28 28 31 35 36 35 32 27 25 17 350 316 273 254 231 217 225 231 230 233 238 236 231 228 229 229 228 237 249 251 252 255 251 241 233 232 236 240 244 249 254 255 252 249 246 243 242 242 241 241 242 243
319 324 329 326 328 356 26 27 30 31 26 23 24 26 29 30 30 33 34 35 38 22 346 319 307 302 287 271 266 264 265 264 256 245 242 246 248 242 243 257 257 251 247 244 246 254 259 262 265 263 261 262 262 260 256 252 248 246 245 244 244 244 245
Height
3141 3140 3139 3138 3139 3140 3140 3140 3139 3137 3137 3136 3135 3134 3133 3133 3132 3132 3131 3130 3130 3128 3127 3127 3128 3128 3128 3128 3127 3128 3129 3130 3131 3132 3132 3134 3136 3139 3140 3141 3143 3144 3145 3146 3146 3147 3148 3149 3150 3150 3151 3152 3153 3153 3153 3153 3153 3154 3155 3155 3156 3156 3156
3139 3138 3137 3136 3137 3138 3138 3138 3137 3135 3134 3134 3133 3132 3131 3130 3130 3129 3128 3128 3128 3127 3126 3125 3125 3126 3126 3125 3125 3125 3127 3128 3129 3130 3131 3133 3134 3136 3138 3139 3141 3142 3143 3144 3144 3145 3147 3147 3148 3149 3150 3151 3152 3152 3152 3151 3152 3153 3154 3154 3155 3156 3156
3137 3135 3134 3135 3136 3137 3136 3136 3134 3133 3132 3131 3130 3129 3128 3128 3127 3126 3126 3125 3125 3125 3124 3123 3123 3123 3123 3123 3123 3124 3125 3126 3127 3128 3130 3131 3132 3134 3136 3137 3139 3140 3141 3142 3143 3144 3145 3146 3147 3147 3148 3149 3150 3150 3151 3151 3151 3152 3153 3153 3154 3155 3156
3135 3133 3132 3133 3134 3134 3134 3133 3132 3130 3129 3128 3127 3125 3125 3124 3124 3123 3123 3123 3123 3122 3122 3121 3120 3121 3121 3122 3121 3122 3123 3124 3126 3127 3128 3129 3131 3132 3134 3136 3137 3138 3139 3140 3141 3142 3143 3144 3145 3146 3147 3148 3149 3149 3150 3150 3151 3151 3152 3152 3153 3154 3155
3132 3131 3131 3131 3131 3130 3130 3129 3128 3127 3126 3125 3124 3121 3119 3119 3119 3119 3120 3121 3121 3120 3120 3119 3118 3118 3119 3120 3120 3121 3122 3123 3124 3126 3127 3128 3129 3131 3133 3134 3136 3137 3138 3138 3139 3140 3142 3143 3144 3145 3146 3147 3147 3148 3148 3149 3150 3150 3151 3151 3151 3152 3153
3130 3129 3129 3129 3128 3127 3126 3126 3125 3124 3123 3121 3119 3116 3114 3114 3115 3116 3118 3118 3118 3118 3117 3117 3117 3116 3117 3118 3119 3120 3121 3122 3123 3124 3126 3127 3128 3130 3131 3133 3134 3135 3136 3137 3137 3139 3141 3142 3143 3144 3144 3145 3146 3146 3147 3147 3148 3149 3149 3150 3150 3151 3151
3128 3127 3126 3126 3125 3124 3123 3122 3122 3121 3120 3118 3114 3112 3112 3113 3113 3114 3115 3116 3115 3114 3114 3114 3115 3115 3115 3116 3117 3118 3119 3121 3122 3123 3124 3125 3126 3128 3129 3130 3133 3134 3135 3135 3136 3138 3139 3140 3142 3143 3143 3143 3144 3145 3146 3146 3147 3147 3148 3148 3149 3150 3150
3126 3125 3124 3123 3122 3121 3120 3119 3119 3118 3117 3115 3111 3110 3110 3110 3110 3110 3111 3113 3113 3112 3111 3111 3112 3113 3113 3114 3115 3115 3117 3119 3120 3121 3122 3123 3124 3126 3127 3128 3130 3131 3133 3134 3134 3136 3138 3139 3140 3141 3142 3142 3143 3143 3144 3145 3146 3146 3147 3147 3148 3149 3150
3124 3123 3122 3121 3119 3118 3117 3116 3116 3115 3113 3111 3109 3108 3107 3106 3106 3107 3109 3110 3110 3109 3108 3107 3109 3111 3111 3112 3112 3113 3115 3116 3118 3119 3120 3121 3122 3124 3125 3126 3127 3129 3131 3132 3132 3134 3135 3137 3138 3138 3139 3140 3141 3142 3142 3143 3144 3145 3146 3146 3146 3148 3149
3122 3121 3120 3119 3117 3116 3115 3113 3112 3111 3109 3107 3105 3104 3103 3102 3103 3105 3107 3108 3107 3107 3106 3105 3106 3107 3108 3109 3110 3111 3112 3113 3115 3116 3118 3119 3120 3121 3122 3124 3126 3128 3129 3130 3130 3131 3133 3136 3137 3136 3137 3137 3138 3140 3141 3142 3143 3144 3144 3145 3145 3147 3147
3120 3119 3118 3116 3115 3114 3113 3111 3109 3108 3106 3103 3100 3099 3098 3098 3098 3099 3102 3105 3106 3105 3104 3102 3102 3103 3104 3105 3107 3108 3109 3110 3112 3114 3116 3117 3117 3119 3120 3122 3124 3125 3127 3128 3129 3130 3131 3132 3135 3136 3136 3136 3137 3139 3140 3141 3142 3143 3143 3143 3144 3145 3146
3118 3117 3115 3114 3112 3111 3110 3108 3106 3104 3102 3099 3096 3093 3092 3093 3094 3094 3098 3102 3103 3101 3100 3099 3099 3099 3100 3101 3103 3105 3107 3108 3110 3111 3113 3114 3115 3116 3118 3120 3121 3122 3124 3126 3127 3128 3129 3130 3132 3134 3134 3135 3137 3138 3138 3139 3140 3141 3142 3142 3143 3144 3144
3116 3114 3113 3111 3110 3108 3107 3105 3103 3101 3099 3096 3092 3089 3089 3089 3090 3092 3095 3098 3098 3096 3096 3096 3097 3097 3097 3098 3099 3101 3104 3106 3107 3109 3110 3111 3113 3114 3116 3117 3119 3119 3121 3123 3125 3127 3128 3128 3129 3131 3132 3134 3136 3136 3137 3137 3137 3139 3140 3140 3141 3142 3143
3113 3112 3110 3109 3107 3106 3104 3103 3100 3098 3096 3093 3089 3087 3086 3087 3087 3089 3091 3094 3094 3093 3094 3094 3095 3095 3095 3096 3097 3099 3101 3103 3104 3106 3108 3109 3111 3113 3114 3115 3116 3118 3119 3121 3123 3125 3126 3126 3127 3129 3131 3132 3133 3134 3135 3136 3136 3137 3139 3140 3140 3141 3142
3111 3110 3108 3107 3105 3103 3101 3100 3098 3095 3093 3091 3087 3085 3085 3085 3085 3087 3089 3091 3092 3092 3092 3093 3093 3094 3094 3094 3095 3097 3099 3100 3101 3103 3105 3107 3109 3111 3112 3113 3115 3116 3118 3119 3121 3123 3124 3125 3126 3128 3129 3130 3132 3132 3134 3134 3135 3136 3137 3139 3139 3139 3141
3109 3108 3106 3105 3103 3101 3099 3098 3095 3093 3091 3088 3086 3084 3084 3084 3085 3086 3088 3090 3091 3091 3091 3092 3092 3092 3092 3092 3093 3095 3097 3098 3099 3101 3104 3105 3107 3110 3111 3112 3113 3115 3117 3118 3120 3121 3122 3124 3125 3126 3127 3128 3129 3131 3132 3133 3134 3135 3136 3137 3138 3139 3140
3108 3106 3105 3103 3101 3099 3097 3096 3094 3091 3089 3087 3085 3084 3084 3085 3085 3086 3087 3089 3089 3090 3091 3092 3091 3091 3091 3092 3094 3095 3097 3097 3098 3101 3103 3104 3106 3108 3110 3112 3112 3114 3116 3117 3119 3120 3121 3122 3123 3125 3124 3124 3126 3128 3129 3131 3133 3134 3135 3136 3137 3138 3139
3106 3105 3103 3101 3099 3098 3096 3094 3092 3090 3088 3087 3085 3084 3084 3084 3084 3085 3087 3088 3088 3089 3091 3091 3090 3090 3092 3093 3096 3097 3097 3098 3099 3101 3102 3103 3105 3106 3108 3110 3110 3112 3114 3115 3118 3119 3118 3119 3121 3123 3123 3124 3125 3126 3128 3130 3132 3133 3134 3135 3135 3137 3138
3105 3103 3102 3100 3098 3097 3095 3092 3090 3089 3087 3086 3085 3084 3083 3083 3083 3085 3086 3087 3087 3088 3089 3089 3089 3090 3091 3093 3096 3097 3097 3098 3099 3101 3102 3102 3103 3105 3106 3106 3106 3109 3112 3114 3116 3118 3117 3117 3118 3121 3123 3124 3125 3126 3127 3129 3130 3131 3133 3133 3134 3136 3137
3104 3102 3101 3099 3097 3095 3094 3091 3089 3088 3086 3085 3084 3084 3083 3082 3082 3083 3085 3086 3086 3086 3087 3088 3089 3090 3090 3092 3095 3096 3097 3098 3099 3100 3101 3100 3102 3104 3104 3103 3105 3109 3112 3113 3114 3116 3118 3116 3116 3119 3122 3122 3123 3125 3127 3127 3129 3130 3132 3132 3133 3134 3135
3102 3101 3100 3098 3096 3094 3093 3091 3088 3087 3085 3084 3083 3082 3082 3082 3082 3082 3083 3084 3084 3084 3085 3086 3087 3088 3089 3090 3093 3094 3096 3097 3097 3099 3099 3098 3099 3102 3103 3104 3105 3108 3110 3111 3111 3114 3117 3116 3115 3119 3121 3121 3122 3124 3126 3126 3128 3129 3130 3130 3132 3134 3134
3101 3100 3099 3097 3095 3093 3092 3090 3088 3086 3084 3083 3082 3081 3081 3081 3081 3082 3083 3083 3083 3083 3084 3084 3085 3086 3088 3089 3091 3093 3094 3096 3096 3097 3096 3096 3097 3100 3102 3104 3104 3106 3108 3110 3110 3112 3114 3114 3116 3118 3119 3120 3122 3123 3124 3125 3126 3128 3129 3129 3130 3132 3133
3101 3099 3098 3096 3094 3092 3091 3089 3087 3085 3083 3081 3080 3079 3079 3080 3080 3081 3082 3082 3082 3082 3083 3082 3083 3084 3086 3088 3090 3091 3093 3094 3095 3095 3095 3096 3097 3099 3101 3102 3102 3104 3106 3108 3109 3110 3111 3112 3114 3116 3117 3119 3120 3121 3123 3124 3125 3127 3128 3128 3129 3130 3131
3100 3098 3097 3095 3094 3092 3090 3088 3086 3084 3082 3080 3079 3078 3078 3078 3079 3080 3080 3080 3080 3081 3081 3081 3082 3083 3084 3085 3088 3090 3091 3092 3093 3093 3094 3095 3096 3098 3100 3100 3101 3102 3104 3107 3108 3109 3110 3111 3113 3114 3115 3117 3118 3119 3121 3122 3124 3125 3126 3127 3127 3128 3129
3098 3097 3096 3094 3093 3091 3089 3087 3085 3083 3081 3079 3078 3077 3076 3077 3078 3079 3079 3079 3079 3080 3080 3081 3081 3082 3083 3084 3086 3088 3089 3090 3091 3091 3092 3093 3094 3096 3097 3097 3099 3101 3102 3105 3107 3107 3108 3109 3111 3113 3114 3115 3117 3118 3119 3121 3123 3124 3124 3125 3126 3127 3128
3097 3096 3094 3093 3092 3090 3088 3086 3084 3082 3081 3079 3078 3077 3076 3076 3077 3077 3078 3078 3078 3079 3079 3080 3080 3081 3082 3083 3085 3086 3088 3089 3089 3089 3090 3091 3092 3094 3095 3096 3098 3101 3102 3103 3104 3105 3107 3108 3110 3112 3113 3114 3115 3116 3117 3119 3121 3122 3123 3124 3124 3125 3126
3096 3094 3093 3092 3091 3089 3088 3086 3084 3082 3081 3079 3078 3077 3076 3075 3075 3076 3076 3077 3077 3077 3078 3079 3080 3081 3082 3083 3084 3085 3086 3087 3088 3088 3089 3090 3091 3093 3095 3096 3098 3100 3102 3102 3102 3103 3106 3107 3108 3110 3111 3113 3114 3115 3117 3118 3120 3121 3122 3123 3123 3124 3125
3095 3093 3092 3091 3090 3088 3087 3085 3084 3082 3080 3079 3078 3076 3075 3074 3074 3074 3075 3075 3076 3076 3077 3077 3079 3080 3081 3082 3083 3084 3085 3086 3087 3088 3089 3089 3090 3092 3094 3095 3097 3099 3101 3101 3101 3102 3103 3104 3107 3109 3110 3112 3113 3114 3116 3117 3119 3120 3120 3121 3122 3122 3123
3094 3092 3091 3090 3089 3088 3086 3085 3083 3081 3080 3078 3077 3076 3075 3074 3073 3073 3074 3074 3075 3076 3076 3077 3078 3079 3081 3081 3082 3083 3085 3086 3087 3087 3088 3089 3090 3091 3092 3094 3096 3098 3101 3101 3101 3101 3102 3104 3107 3109 3109 3111 3112 3113 3115 3116 3116 3117 3118 3119 3120 3120 3122
3093 3092 3091 3090 3089 3088 3086 3084 3083 3081 3080 3078 3077 3077 3076 3075 3074 3074 3074 3074 3075 3076 3077 3077 3078 3079 3080 3081 3082 3083 3084 3085 3086 3087 3088 3089 3090 3091 3092 3094 3096 3098 3099 3100 3101 3101 3103 3105 3106 3107 3108 3110 3111 3112 3113 3114 3114 3115 3116 3117 3118 3118 3119
3092 3091 3090 3089 3088 3087 3086 3084 3083 3081 3080 3079 3078 3078 3077 3076 3076 3075 3075 3075 3076 3077 3078 3078 3078 3079 3080 3080 3082 3083 3083 3084 3086 3086 3086 3088 3090 3091 3092 3094 3096 3097 3098 3099 3099 3100 3102 3104 3105 3106 3107 3108 3109 3110 3111 3111 3112 3112 3113 3114 3115 3115 3116
3091 3090 3090 3089 3088 3087 3085 3084 3083 3081 3080 3079 3079 3079 3078 3078 3077 3077 3077 3077 3077 3078 3078 3077 3078 3079 3080 3080 3081 3081 3083 3084 3085 3085 3086 3087 3089 3091 3092 3093 3095 3096 3097 3098 3097 3098 3100 3102 3103 3103 3105 3106 3107 3108 3108 3109 3109 3110 3111 3112 3112 3113 3114
3091 3090 3089 3088 3087 3087 3085 3084 3083 3082 3081 3080 3080 3079 3079 3079 3078 3078 3078 3077 3078 3078 3078 3077 3078 3079 3080 3080 3081 3082 3084 3085 3085 3085 3087 3088 3089 3091 3092 3093 3094 3095 3096 3096 3096 3097 3098 3099 3100 3101 3102 3104 3105 3105 3106 3106 3107 3108 3109 3110 3110 3111 3111
3090 3089 3089 3088 3087 3086 3086 3085 3084 3083 3082 3081 3080 3080 3080 3079 3079 3079 3078 3077 3077 3078 3078 3078 3078 3080 3080 3080 3081 3082 3083 3084 3084 3085 3086 3087 3089 3091 3092 3092 3093 3093 3094 3095 3095 3096 3097 3097 3098 3099 3100 3101 3102 3103 3103 3104 3105 3106 3107 3107 3108 3108 3108
3090 3089 3088 3087 3087 3086 3086 3085 3084 3083 3082 3081 3081 3080 3080 3079 3079 3079 3079 3078 3078 3078 3079 3079 3079 3080 3081 3081 3082 3082 3083 3083 3084 3085 3086 3086 3088 3089 3090 3092 3092 3092 3093 3095 3095 3095 3096 3095 3095 3097 3098 3098 3100 3101 3102 3102 3103 3103 3104 3104 3104 3104 3104
3089 3088 3088 3087 3087 3086 3086 3085 3085 3084 3083 3082 3081 3081 3080 3080 3079 3079 3079 3079 3079 3079 3079 3080 3081 3081 3082 3082 3082 3083 3083 3084 3084 3085 3085 3086 3086 3087 3088 3090 3092 3092 3093 3094 3094 3094 3094 3094 3094 3095 3096 3097 3098 3099 3099 3099 3100 3100 3100 3100 3100 3100 3100
3089 3088 3087 3087 3086 3086 3086 3085 3085 3084 3084 3083 3082 3081 3081 3080 3080 3080 3079 3079 3079 3080 3080 3081 3081 3082 3083 3083 3083 3084 3084 3085 3085 3085 3085 3086 3086 3087 3088 3089 3091 3091 3092 3092 3093 3093 3093 3093 3093 3093 3094 3094 3095 3096 3096 3096 3096 3096 3096 3096 3096 3095 3096